Location: Unspecified
(0.0000°N, 0.0000°E)
Time: 02:20:55
(UTC+00:00)

Envisat - Pass Details

Date: 23 October 2020
Orbit: 764 x 766 km, 98.1° (Epoch: 25 October)

Event Time Altitude Azimuth Distance (km) Brightness Sun altitude
Rises 04:41:26 0° 40° (NE) 3,216 6.6 -15.4°
Reaches altitude 10° 04:44:22 10° 58° (ENE) 2,293 6.1 -14.7°
Maximum altitude 04:47:52 19° 102° (ESE) 1,753 6.0 -13.8°
Drops below altitude 10° 04:51:23 10° 147° (SSE) 2,301 6.1 -13.0°
Sets 04:54:19 0° 164° (SSE) 3,229 6.6 -12.2°
